This demonstration page uses our WeatherBlox Daily Observations layout. Learn more.

Left ArrowRight Arrow

Hourly Observations for June 27, 2021

Temp ( °F °C ) Dew Point ( °F °C ) Humidity (%) Winds ( mph kmh ) Pressure ( in mb ) Visibility ( mi km ) Precip ( " mm )
12:15 am 00:15 Clear 75 24 73 23 94 94 S 10 17 29.96 1014 10 16 N/A
12:35 am 00:35 Clear 75 24 73 23 94 94 S 12 19 29.97 1015 10 16 N/A
12:55 am 00:55 Clear 75 24 73 23 94 94 S 10 17 29.97 1015 10 16 N/A
1:15 am 01:15 Clear 75 24 73 23 94 94 S 13 20 29.97 1015 10 16 N/A
1:35 am 01:35 Clear 75 24 72 22 89 89 S 9 15 29.97 1015 10 16 N/A
1:55 am 01:55 Clear 73 23 72 22 94 94 S 8 13 29.97 1015 10 16 N/A
2:15 am 02:15 Clear 73 23 72 22 94 94 N N/A 29.97 1015 10 16 N/A
2:35 am 02:35 Clear 73 23 72 22 94 94 N N/A 29.97 1015 10 16 N/A
2:55 am 02:55 Clear 73 23 72 22 94 94 S 9 15 29.97 1015 10 16 N/A
3:15 am 03:15 Clear 73 23 72 22 94 94 S 9 15 29.96 1015 10 16 N/A
3:35 am 03:35 Clear 72 22 72 22 100 100 S 9 15 29.96 1015 10 16 N/A
3:55 am 03:55 Clear 72 22 72 22 100 100 S 7 11 29.96 1015 10 16 N/A
4:15 am 04:15 Partly Cloudy 72 22 72 22 100 100 S 9 15 29.96 1015 10 16 N/A
4:35 am 04:35 Mostly Cloudy 72 22 72 22 100 100 S 9 15 29.96 1015 10 16 N/A
4:55 am 04:55 Partly Cloudy 72 22 72 22 100 100 S 8 13 29.96 1015 10 16 N/A
5:15 am 05:15 Clear 72 22 72 22 100 100 N N/A 29.95 1014 10 16 N/A
5:35 am 05:35 Clear 72 22 72 22 100 100 S 8 13 29.96 1015 10 16 N/A
5:55 am 05:55 Clear 72 22 72 22 100 100 N N/A 29.96 1015 10 16 N/A
6:15 am 06:15 Clear 72 22 72 22 100 100 N N/A 29.97 1015 10 16 N/A
6:35 am 06:35 Mostly Cloudy 72 22 72 22 100 100 N N/A 29.98 1015 10 16 N/A
6:55 am 06:55 Partly Cloudy 72 22 72 22 100 100 S 5 7 29.98 1015 10 16 N/A
7:15 am 07:15 Mostly Cloudy 72 22 72 22 100 100 N N/A 29.98 1015 10 16 N/A
7:35 am 07:35 Mostly Cloudy 72 22 72 22 100 100 S 6 9 29.98 1015 10 16 N/A
7:55 am 07:55 Partly Cloudy 73 23 73 23 100 100 S 7 11 29.99 1016 10 16 N/A
8:15 am 08:15 Partly Cloudy 75 24 73 23 94 94 S 9 15 29.99 1015 10 16 N/A
8:35 am 08:35 Partly Cloudy 75 24 73 23 94 94 SSW 10 17 30.00 1016 10 16 N/A
8:55 am 08:55 Mostly Cloudy 75 24 73 23 94 94 S 12 19 30.00 1016 10 16 N/A
9:15 am 09:15 Mostly Cloudy 79 26 75 24 89 89 S 13 20 30.00 1016 10 16 N/A
9:35 am 09:35 Mostly Cloudy 79 26 75 24 89 89 SSW 13 20 30.00 1016 10 16 N/A
9:55 am 09:55 Cloudy 79 26 75 24 89 89 SSW 16 26 30.00 1016 10 16 N/A
10:15 am 10:15 Cloudy N/A N/A N/A SSW 14 22 N/A 10 16 N/A
10:35 am 10:35 Cloudy N/A N/A N/A SW 10 17 N/A 10 16 N/A
10:55 am 10:55 Cloudy 79 26 77 25 94 94 SW 14 22 30.02 1017 10 16 N/A
11:15 am 11:15 Cloudy 81 27 77 25 89 89 SW 17 28 30.01 1016 10 16 N/A
11:35 am 11:35 Cloudy 81 27 77 25 89 89 SW 12 19 30.02 1016 10 16 N/A
11:55 am 11:55 Cloudy 81 27 77 25 89 89 SW 12 19 30.02 1016 10 16 N/A
12:15 pm 12:15 Cloudy N/A N/A N/A SW 16 26 N/A 10 16 N/A
12:35 pm 12:35 Cloudy 82 28 77 25 84 84 SSW 15 24 30.02 1017 10 16 N/A
12:55 pm 12:55 Mostly Cloudy 84 29 77 25 79 79 SW 17 28 30.01 1016 10 16 N/A
1:15 pm 13:15 Mostly Cloudy 86 30 77 25 75 75 SSW 15 24 30.02 1017 10 16 N/A
1:35 pm 13:35 Cloudy N/A N/A N/A SW 13 20 N/A 10 16 N/A
1:55 pm 13:55 Mostly Cloudy N/A N/A N/A SW 14 22 N/A 10 16 N/A
2:15 pm 14:15 Mostly Cloudy 88 31 77 25 70 70 SSW 13 20 30.00 1016 10 16 N/A
2:35 pm 14:35 Partly Cloudy N/A N/A N/A S 15 24 N/A 10 16 N/A
2:55 pm 14:55 Mostly Cloudy N/A N/A N/A SSW 16 26 N/A 7 11 N/A
3:15 pm 15:15 Partly Cloudy 86 30 79 26 79 79 SSW 8 13 29.99 1016 10 16 N/A
3:35 pm 15:35 Sunny 86 30 79 26 79 79 SSW 14 22 29.99 1016 10 16 N/A
3:55 pm 15:55 Sunny 86 30 77 25 75 75 SSW 14 22 29.99 1016 10 16 N/A
4:15 pm 16:15 Partly Cloudy N/A N/A N/A SW 14 22 N/A 10 16 N/A
4:35 pm 16:35 Cloudy 79 26 77 25 94 94 WSW 13 20 30.03 1017 10 16 N/A
4:55 pm 16:55 Mostly Cloudy 75 24 75 24 100 100 S 5 7 30.03 1017 10 16 N/A
5:15 pm 17:15 Partly Cloudy 73 23 73 23 100 100 S 10 17 30.03 1017 10 16 N/A
5:35 pm 17:35 Partly Cloudy 73 23 73 23 100 100 S 5 7 30.03 1017 10 16 N/A
5:55 pm 17:55 Partly Cloudy 75 24 75 24 100 100 N N/A 30.03 1017 10 16 N/A
6:15 pm 18:15 Sunny 77 25 77 25 100 100 ESE 7 11 30.02 1017 10 16 N/A
6:35 pm 18:35 Sunny 79 26 79 26 100 100 N N/A 30.01 1016 10 16 N/A
6:55 pm 18:55 Sunny 79 26 79 26 100 100 N N/A 30.00 1016 10 16 N/A
7:15 pm 19:15 Sunny 81 27 79 26 94 94 N N/A 30.00 1016 10 16 N/A
7:35 pm 19:35 Sunny 82 28 77 25 84 84 S 3 6 30.00 1016 10 16 N/A
7:55 pm 19:55 Sunny 81 27 77 25 89 89 N N/A 30.02 1016 10 16 N/A
8:15 pm 20:15 Sunny 81 27 77 25 89 89 N N/A 30.01 1016 10 16 N/A
8:35 pm 20:35 Sunny 81 27 77 25 89 89 N N/A 30.03 1017 10 16 N/A
8:55 pm 20:55 Sunny 79 26 77 25 94 94 N N/A 30.02 1017 10 16 N/A
9:15 pm 21:15 Sunny 77 25 77 25 100 100 N N/A 30.03 1017 10 16 N/A
9:35 pm 21:35 Partly Cloudy 77 25 77 25 100 100 N N/A 30.03 1017 10 16 N/A
10:15 pm 22:15 Mostly Cloudy 75 24 75 24 100 100 N N/A 30.07 1018 5 8 N/A
10:35 pm 22:35 Partly Cloudy 75 24 75 24 100 100 N N/A 30.07 1018 10 16 N/A
10:55 pm 22:55 Partly Cloudy 75 24 75 24 100 100 N N/A 30.08 1018 10 16 N/A
11:15 pm 23:15 Partly Cloudy 73 23 73 23 100 100 N N/A 30.08 1019 10 16 N/A
11:35 pm 23:35 Mostly Cloudy 73 23 73 23 100 100 N N/A 30.08 1019 10 16 N/A
11:55 pm 23:55 Mostly Cloudy 73 23 73 23 100 100 N N/A 30.08 1019 10 16 N/A

Powered by AerisWeather